This is the latest recevied weather packets stored in our database for station/object W8LMG. If no packets are shown the sender has not sent any weather packets the latest 10 day(s).
| Time | Temp. | Humidity | Pressure | Rain* | Wind** | Luminosity | Snow |
|---|---|---|---|---|---|---|---|
| 1778106999 | 17.22° C | 84% | 1011.9 hPa | 0 mm | - | 66 W/m² | - |
| 1778106694 | 18.33° C | 81% | 1011.7 hPa | 0 mm | - | 64 W/m² | - |
| 1778106392 | 18.89° C | 83% | 1011.6 hPa | 0 mm | - | 238 W/m² | - |
| 1778106088 | 18.33° C | 84% | 1011.7 hPa | 0 mm | - | 204 W/m² | - |
| 1778105786 | 18.33° C | 83% | 1011.7 hPa | 0 mm | - | 43 W/m² | - |
| 1778105483 | 18.89° C | 84% | 1011.4 hPa | 0 mm | - | 11 W/m² | - |
| 1778105180 | 18.89° C | 85% | 1011.2 hPa | 0 mm | - | 31 W/m² | - |
| 1778104875 | 18.89° C | 85% | 1011.2 hPa | 0 mm | - | 34 W/m² | - |
| 1778104572 | 18.89° C | 85% | 1010.8 hPa | 0 mm | - | 43 W/m² | - |
| 1778104267 | 19.44° C | 86% | 1010.8 hPa | 0 mm | - | 30 W/m² | - |
| 1778103965 | 19.44° C | 84% | 1010.7 hPa | 0 mm | - | 66 W/m² | - |
| 1778103662 | 19.44° C | 83% | 1010.6 hPa | 0 mm | - | 108 W/m² | - |
| 1778103360 | 19.44° C | 84% | 1010.7 hPa | 0 mm | - | 113 W/m² | - |
| 1778103057 | 20° C | 84% | 1010.6 hPa | 0 mm | - | 120 W/m² | - |
| 1778102754 | 20° C | 84% | 1010.6 hPa | 0 mm | - | 110 W/m² | - |
| 1778102448 | 20° C | 82% | 1010.6 hPa | 0 mm | - | 214 W/m² | - |
| 1778102145 | 19.44° C | 84% | 1010.8 hPa | 0 mm | - | 146 W/m² | - |
| 1778101842 | 20° C | 82% | 1010.6 hPa | 0 mm | - | 186 W/m² | - |
| 1778101539 | 19.44° C | 83% | 1010.7 hPa | 0 mm | - | 177 W/m² | - |
| 1778101235 | 20° C | 83% | 1010.7 hPa | 0 mm | - | 84 W/m² | - |
| 1778100932 | 20° C | 82% | 1010.7 hPa | 0 mm | - | 121 W/m² | - |
| 1778100627 | 19.44° C | 85% | 1010.6 hPa | 0 mm | - | 208 W/m² | - |
| 1778100325 | 20° C | 84% | 1010.5 hPa | 0 mm | - | 78 W/m² | - |
| 1778100022 | 20° C | 83% | 1010.5 hPa | 0 mm | - | 91 W/m² | - |
| 1778099720 | 20° C | 81% | 1010.2 hPa | 0 mm | - | 208 W/m² | - |
* Rain latest hour (hover to see other rain measurements)
** Current wind speed in m/s (hover to see current wind gust speed)